Location: Doverdale
(52.2833°N, 2.2000°W)
Time: 02:50:07
(UTC+00:00)

Cosmos 2184 Rocket - Pass Details

Date: 29 October 2020
Orbit: 960 x 1001 km, 82.9° (Epoch: 23 November)

Event Time Altitude Azimuth Distance (km) Brightness Sun altitude
Rises 20:17:02 0° 348° (NNW) 3,705 7.4 -32.6°
Reaches altitude 10° 20:19:34 10° 346° (NNW) 2,758 6.7 -33.0°
Enters shadow 20:25:12 63° 299° (WNW) 1,103 4.3 -33.8°
